STARLINK-34002 (63856 NORAD) Tracking and Keplerian Element Data

This shows tracking and keplerian element data for the satellite.

Feedback or suggestion? Click here.




ElementValue
Catalog63856
NameSTARLINK-34002
Epoch Orbit3559
Epoch Day354.19377971
Epoch Year2025
RAAN166.8925
Inclination42.9967
Eccentricity0.0002591
Argument of Perigee268.8596
Mean Anonmoly91.1959
Mean Motion15.27601788
Decay Rate0.0001319
L11 63856U 25093W 25354.19377971 .00013190 00000+0 48764-3 0 9995
L22 63856 42.9967 166.8925 0002591 268.8596 91.1959 15.27601788 35596



Live tracking and technical data element details for STARLINK-34002 (NORAD 63856). STARLINK-34002 can be tracked NOW for your location showing map with azimuth and elevation plus other details from your city location.







IsCatalogInMostPopularTable: catalog: 63856, numindb: 2
Update: records affected: 1



GetName: 63856 STARLINK-34002

Hit Count: updated at: Mon, 09 Feb 2026 09:33:51 GMT